QPF
0.00 0.00 0.00 0.00 0.00 0.00 0.00 0.00 0.00 0.00 0.00 0.00 0.00 0.00 0.00 0.00 0.00 0.00 0.00 0.00 0.00 0.00 0.00 0.00 0.00 0.00 0.00 0.00 0.00 0.00 0.00 0.00 0.00 0.00 0.00 0.00 0.00 0.00 0.00 0.00 0.00 0.00 0.00 0.00
0.00 0.00 0.00 0.00 0.00 0.00 0.00 0.00 0.00 0.00 0.00 0.00 0.00 0.00 0.00 0.00 0.00 0.00 0.00 0.00 0.00 0.00 0.00 0.00 0.00 0.00 0.00 0.00 0.00 0.00 0.00 0.00 0.00 0.00 0.00 0.00 0.00 0.00 0.00 0.00 0.00 0.00 0.00 0.00
0.00 0.00 0.00 0.00 0.00 0.00 0.00 0.00 0.00 0.00 0.00 0.00 0.00 0.00 0.00 0.00 0.00 0.00 0.00 0.00 0.00 0.00 0.00 0.00 0.00 0.00 0.00 0.00 0.00 0.00 0.00 0.00 0.00 0.00 0.00 0.00 0.00 0.00 0.00 0.00 0.00 0.00 0.00 0.00
0.00 0.00 0.00 0.00 0.00 0.00 0.00 0.00 0.00 0.00 0.00 0.00 0.00 0.00 0.00 0.00 0.00 0.00 0.00 0.00 0.00 0.00 0.00 0.00 0.00 0.00 0.00 0.00 0.00 0.00 0.00 0.00 0.00 0.00 0.00 0.00 0.00 0.00 0.00 0.00 0.00 0.00 0.00 0.00
0.00 0.00 0.00 0.00 0.00 0.00 0.00 0.00 0.00 0.00 0.00 0.00 0.00 0.00 0.00 0.00 0.00 0.00 0.00 0.00 0.00 0.00 0.00 0.00 0.00 0.00 0.00 0.00 0.00 0.00 0.00 0.00 0.00 0.00 0.00 0.00 0.00 0.00 0.00 0.00 0.00 0.00 0.00 0.00
0.00 0.00 0.00 0.00 0.00 0.00 0.00 0.00 0.00 0.00 0.00 0.00 0.00 0.00 0.00 0.00 0.00 0.00 0.00 0.00 0.00 0.00 0.00 0.00 0.00 0.00 0.00 0.00 0.00 0.00 0.00 0.00 0.00 0.00 0.00 0.00 0.00 0.00 0.00 0.00 0.00 0.00 0.00 0.00
0.00 0.00 0.00 0.00 0.00 0.00 0.00 0.00 0.00 0.00 0.00 0.00 0.00 0.00 0.00 0.00 0.00 0.00 0.00 0.00 0.00 0.00 0.00 0.00 0.00 0.00 0.00 0.00 0.00 0.00 0.00 0.00 0.00 0.00 0.00 0.00 0.00 0.00 0.00 0.00 0.00 0.00 0.00 0.00
0.00 0.00 0.00 0.00 0.00 0.00 0.00 0.00 0.00 0.00 0.00 0.00 0.00 0.00 0.00 0.00 0.00 0.00 0.00 0.00 0.00 0.00 0.00 0.00 0.00 0.00 0.00 0.00 0.00 0.00 0.00 0.00 0.00 0.00 0.00 0.00 0.00 0.00 0.00 0.00 0.00 0.00 0.00 0.00
0.00 0.00 0.00 0.00 0.00 0.00 0.00 0.00 0.00 0.00 0.00 0.00 0.00 0.00 0.00 0.00 0.00 0.00 0.00 0.00 0.00 0.00 0.00 0.00 0.00 0.00 0.00 0.00 0.00 0.00 0.00 0.00 0.00 0.00 0.00 0.00 0.00 0.00 0.00 0.00 0.00 0.00 0.00 0.00
0.00 0.00 0.00 0.00 0.00 0.00 0.00 0.00 0.00 0.00 0.00 0.00 0.00 0.00 0.00 0.00 0.00 0.00 0.00 0.00 0.00 0.00 0.00 0.00 0.00 0.00 0.00 0.00 0.00 0.00 0.00 0.00 0.00 0.00 0.00 0.00 0.00 0.00 0.00 0.00 0.00 0.00 0.00 0.00
0.00 0.00 0.00 0.00 0.00 0.00 0.00 0.00 0.00 0.00 0.00 0.00 0.00 0.00 0.00 0.00 0.00 0.00 0.00 0.00 0.00 0.00 0.00 0.00 0.00 0.00 0.00 0.00 0.00 0.00 0.00 0.00 0.00 0.00 0.00 0.00 0.00 0.00 0.00 0.00 0.00 0.00 0.00 0.00
0.00 0.00 0.00 0.00 0.00 0.00 0.00 0.00 0.00 0.00 0.00 0.00 0.00 0.00 0.00 0.00 0.00 0.00 0.00 0.00 0.00 0.00 0.00 0.00 0.00 0.00 0.00 0.00 0.00 0.00 0.00 0.00 0.00 0.00 0.00 0.00 0.00 0.00 0.00 0.00 0.00 0.00 0.00 0.00
0.00 0.00 0.00 0.00 0.00 0.00 0.00 0.00 0.00 0.00 0.00 0.00 0.00 0.00 0.00 0.00 0.00 0.00 0.00 0.00 0.00 0.00 0.00 0.00 0.00 0.00 0.00 0.00 0.00 0.00 0.00 0.00 0.00 0.00 0.00 0.00 0.00 0.00 0.00 0.00 0.00 0.00 0.00 0.00
0.00 0.00 0.00 0.00 0.00 0.00 0.00 0.00 0.00 0.00 0.00 0.00 0.00 0.00 0.00 0.00 0.00 0.01 0.01 0.01 0.01 0.01 0.01 0.00 0.01 0.00 0.00 0.00 0.00 0.00 0.00 0.00 0.00 0.00 0.00 0.00 0.00 0.00 0.00 0.00 0.00 0.00 0.00 0.00
0.00 0.00 0.00 0.00 0.00 0.00 0.00 0.00 0.00 0.00 0.00 0.00 0.00 0.00 0.00 0.00 0.00 0.02 0.05 0.05 0.05 0.06 0.06 0.05 0.03 0.00 0.00 0.00 0.00 0.00 0.00 0.00 0.00 0.00 0.00 0.00 0.00 0.00 0.00 0.00 0.00 0.00 0.00 0.00
0.00 0.00 0.00 0.00 0.00 0.00 0.00 0.00 0.00 0.00 0.00 0.00 0.00 0.00 0.00 0.00 0.01 0.05 0.05 0.05 0.06 0.06 0.05 0.03 0.00 0.00 0.00 0.00 0.00 0.00 0.00 0.00 0.00 0.00 0.00 0.00 0.00 0.00 0.00 0.00 0.00 0.00 0.00 0.00
0.00 0.00 0.02 0.01 0.00 0.01 0.01 0.00 0.00 0.00 0.00 0.00 0.00 0.00 0.00 0.01 0.02 0.03 0.05 0.05 0.04 0.03 0.01 0.00 0.00 0.00 0.00 0.00 0.00 0.00 0.00 0.00 0.00 0.00 0.00 0.00 0.00 0.00 0.00 0.00 0.00 0.00 0.00 0.00
0.00 0.01 0.03 0.02 0.01 0.01 0.00 0.00 0.00 0.00 0.00 0.00 0.00 0.01 0.02 0.04 0.06 0.05 0.02 0.01 0.01 0.00 0.00 0.00 0.00 0.00 0.00 0.00 0.00 0.00 0.00 0.00 0.00 0.00 0.00 0.00 0.00 0.00 0.00 0.00 0.00 0.00 0.00 0.00
0.00 0.00 0.02 0.03 0.01 0.00 0.00 0.00 0.00 0.00 0.01 0.01 0.03 0.06 0.08 0.07 0.04 0.03 0.01 0.00 0.00 0.00 0.00 0.00 0.00 0.00 0.00 0.00 0.00 0.00 0.00 0.00 0.00 0.00 0.00 0.00 0.00 0.00 0.00 0.00 0.00 0.00 0.00 0.00
0.00 0.00 0.02 0.02 0.02 0.01 0.00 0.00 0.00 0.04 0.04 0.04 0.04 0.03 0.02 0.02 0.01 0.00 0.00 0.00 0.00 0.00 0.00 0.00 0.00 0.00 0.00 0.00 0.00 0.00 0.00 0.00 0.00 0.00 0.00 0.00 0.00 0.00 0.00 0.00 0.00 0.00 0.00 0.00
0.00 0.00 0.00 0.00 0.01 0.00 0.00 0.02 0.03 0.02 0.01 0.00 0.00 0.00 0.00 0.01 0.00 0.00 0.00 0.00 0.00 0.00 0.00 0.00 0.00 0.00 0.00 0.00 0.00 0.00 0.00 0.00 0.00 0.00 0.00 0.00 0.00 0.00 0.00 0.00 0.00 0.00 0.00 0.00
0.00 0.00 0.00 0.00 0.00 0.00 0.00 0.00 0.00 0.00 0.00 0.00 0.00 0.00 0.00 0.00 0.00 0.00 0.00 0.00 0.00 0.00 0.00 0.00 0.00 0.00 0.00 0.00 0.00 0.00 0.00 0.00 0.00 0.00 0.00 0.00 0.00 0.00 0.00 0.00 0.00 0.00 0.00 0.00
0.00 0.00 0.00 0.00 0.00 0.00 0.00 0.00 0.00 0.00 0.00 0.00 0.00 0.00 0.00 0.00 0.00 0.00 0.00 0.00 0.00 0.00 0.00 0.00 0.00 0.00 0.00 0.00 0.00 0.00 0.00 0.00 0.00 0.00 0.00 0.00 0.00 0.00 0.00 0.00 0.00 0.00 0.00 0.00
0.00 0.00 0.00 0.00 0.00 0.00 0.00 0.00 0.00 0.00 0.00 0.00 0.00 0.00 0.00 0.00 0.00 0.00 0.00 0.00 0.00 0.00 0.00 0.00 0.00 0.00 0.00 0.00 0.00 0.00 0.00 0.00 0.00 0.00 0.00 0.00 0.00 0.00 0.00 0.00 0.00 0.00 0.00 0.00
0.00 0.00 0.00 0.00 0.00 0.00 0.00 0.00 0.00 0.00 0.00 0.00 0.00 0.00 0.00 0.00 0.00 0.00 0.00 0.00 0.00 0.00 0.00 0.00 0.00 0.00 0.00 0.00 0.00 0.00 0.00 0.00 0.00 0.00 0.00 0.00 0.00 0.00 0.00 0.00 0.00 0.00 0.00 0.01
0.00 0.00 0.00 0.00 0.00 0.00 0.00 0.00 0.00 0.00 0.00 0.00 0.00 0.00 0.00 0.00 0.00 0.00 0.00 0.00 0.00 0.00 0.00 0.00 0.00 0.00 0.00 0.00 0.00 0.00 0.00 0.00 0.00 0.00 0.00 0.00 0.00 0.00 0.00 0.00 0.00 0.00 0.00 0.00
MSLP
1013.98 1014.84 1015.44 1015.78 1015.93 1016.00 1016.26 1016.73 1017.27 1017.34 1017.89 1018.00 1017.85 1017.68 1016.95 1016.65 1016.77 1017.00 1017.16 1016.91 1016.85 1017.14 1017.27 1017.78 1018.43 1019.04 1019.65 1020.20 1020.64 1020.97 1021.49 1022.16 1022.76 1023.45 1023.98 1024.38 1024.66 1024.87 1025.05 1025.17 1025.28 1025.50 1025.70 1025.84
1014.76 1015.35 1015.78 1016.05 1016.24 1016.40 1016.77 1017.33 1017.75 1017.88 1018.32 1018.73 1018.46 1017.82 1016.97 1016.61 1016.77 1017.18 1017.39 1017.26 1017.14 1017.24 1017.56 1017.99 1018.51 1019.09 1019.65 1020.08 1020.60 1021.16 1021.67 1022.20 1022.71 1023.12 1023.61 1023.91 1024.39 1024.84 1025.00 1025.23 1025.40 1025.57 1025.81 1026.00
1015.38 1016.19 1016.27 1016.47 1016.83 1017.14 1017.49 1017.98 1018.52 1019.30 1019.23 1019.53 1019.30 1018.14 1017.02 1016.45 1016.60 1016.99 1017.39 1017.51 1017.37 1017.46 1017.87 1018.38 1018.83 1019.25 1019.73 1020.32 1020.75 1021.28 1021.79 1022.24 1022.64 1023.10 1023.65 1024.13 1024.47 1024.92 1025.28 1025.49 1025.69 1025.80 1025.91 1026.10
1016.17 1016.62 1016.81 1017.13 1017.44 1017.82 1018.44 1018.73 1019.37 1020.14 1020.73 1021.42 1020.45 1019.67 1017.55 1016.73 1016.76 1017.29 1017.75 1017.92 1017.96 1017.91 1018.08 1018.52 1019.05 1019.52 1019.87 1020.42 1020.91 1021.25 1021.84 1022.37 1022.76 1023.03 1023.52 1023.98 1024.57 1025.03 1025.29 1025.47 1025.72 1025.92 1026.03 1026.19
1016.76 1017.19 1017.51 1017.83 1018.03 1018.37 1019.19 1019.58 1020.32 1021.22 1022.21 1022.62 1021.54 1021.11 1017.65 1017.25 1017.09 1017.41 1017.96 1018.31 1018.31 1018.35 1018.37 1018.67 1019.21 1019.61 1020.11 1020.43 1021.09 1021.57 1022.16 1022.71 1023.11 1023.36 1023.64 1024.10 1024.67 1025.04 1025.38 1025.68 1025.96 1026.19 1026.33 1026.39
1017.49 1017.80 1018.05 1018.29 1018.72 1019.08 1019.78 1020.49 1021.41 1022.37 1023.01 1023.37 1022.24 1021.49 1018.38 1017.47 1016.82 1017.44 1018.18 1018.64 1018.76 1018.78 1018.61 1018.86 1019.34 1020.04 1020.52 1020.97 1021.43 1021.85 1022.32 1022.91 1023.18 1023.42 1023.76 1024.06 1024.55 1025.04 1025.49 1025.86 1026.18 1026.34 1026.48 1026.54
1018.15 1018.43 1018.81 1019.04 1019.55 1020.06 1020.60 1021.58 1022.70 1023.51 1023.89 1023.22 1022.33 1021.88 1017.84 1017.19 1017.32 1017.70 1018.62 1019.24 1019.44 1019.41 1019.24 1019.56 1019.61 1020.13 1020.88 1021.31 1021.82 1022.27 1022.68 1023.29 1023.55 1023.86 1024.26 1024.60 1024.93 1025.22 1025.60 1025.96 1026.27 1026.50 1026.69 1026.81
1019.08 1019.16 1019.60 1019.99 1020.33 1020.72 1021.38 1021.96 1023.23 1023.93 1024.66 1023.56 1022.73 1020.98 1017.99 1018.09 1018.40 1018.80 1019.32 1019.74 1019.99 1020.00 1019.83 1019.86 1019.96 1020.37 1021.02 1021.50 1021.98 1022.44 1022.93 1023.43 1023.83 1024.18 1024.59 1024.89 1025.17 1025.45 1025.76 1026.03 1026.33 1026.57 1026.79 1026.95
1019.33 1019.75 1020.26 1020.58 1021.01 1021.72 1022.38 1022.67 1022.90 1024.08 1025.28 1024.34 1021.57 1019.74 1018.67 1018.95 1019.41 1019.79 1020.18 1020.49 1020.78 1020.83 1020.69 1020.45 1020.46 1020.70 1021.22 1021.73 1022.21 1022.63 1023.18 1023.75 1024.10 1024.42 1024.73 1025.07 1025.29 1025.53 1025.85 1026.07 1026.21 1026.34 1026.45 1026.44
1019.38 1020.45 1020.85 1021.36 1021.77 1022.44 1022.61 1023.25 1023.79 1024.37 1024.76 1023.96 1021.71 1020.94 1019.18 1019.59 1020.11 1020.65 1021.06 1021.37 1021.57 1021.62 1021.38 1021.11 1021.01 1021.16 1021.57 1022.00 1022.49 1023.04 1023.49 1024.01 1024.47 1024.73 1024.99 1025.26 1025.55 1025.71 1025.88 1026.04 1026.22 1026.27 1026.23 1026.30
1020.07 1020.86 1021.81 1022.01 1022.44 1022.76 1023.80 1023.91 1024.42 1024.39 1024.25 1023.74 1022.65 1019.84 1018.92 1019.36 1020.12 1020.94 1021.53 1021.83 1022.01 1022.17 1022.10 1021.96 1021.95 1022.06 1022.33 1022.62 1023.13 1023.45 1023.92 1024.32 1024.77 1025.04 1025.31 1025.55 1025.86 1026.04 1026.09 1026.28 1026.39 1026.31 1026.31 1026.29
1020.38 1021.17 1022.07 1022.08 1023.14 1023.56 1023.77 1023.91 1023.97 1024.30 1024.19 1023.63 1023.01 1019.75 1019.21 1019.92 1020.73 1021.28 1021.93 1022.23 1022.36 1022.28 1022.30 1022.50 1022.36 1022.64 1022.87 1023.55 1023.85 1024.19 1024.54 1024.68 1025.11 1025.44 1025.60 1026.06 1026.32 1026.44 1026.51 1026.60 1026.60 1026.44 1026.33 1026.26
1020.36 1021.04 1021.77 1022.05 1023.41 1023.78 1024.02 1024.09 1023.93 1023.84 1023.28 1022.47 1022.24 1019.23 1019.36 1020.09 1020.88 1021.28 1021.77 1022.03 1022.49 1022.52 1022.48 1022.73 1022.94 1023.07 1023.42 1023.81 1024.24 1024.69 1025.00 1025.23 1025.54 1025.66 1025.89 1026.22 1026.41 1026.50 1026.65 1026.74 1026.74 1026.55 1026.50 1026.39
1020.15 1020.82 1021.06 1021.00 1021.30 1022.09 1023.42 1023.43 1023.41 1023.11 1022.71 1021.11 1018.67 1018.50 1019.38 1019.89 1020.48 1021.11 1021.53 1021.88 1022.50 1022.92 1022.96 1023.19 1023.38 1023.86 1023.95 1024.28 1024.76 1025.21 1025.52 1025.63 1025.76 1025.96 1026.28 1026.52 1026.66 1026.75 1026.83 1026.81 1026.83 1026.69 1026.50 1026.41
1020.34 1020.68 1020.44 1019.96 1020.21 1020.94 1021.33 1021.95 1022.34 1022.07 1020.64 1019.97 1017.28 1017.85 1018.29 1018.51 1019.11 1019.95 1020.91 1021.78 1022.53 1023.05 1023.34 1023.77 1023.88 1024.15 1024.37 1024.73 1025.18 1025.53 1025.79 1026.05 1026.23 1026.42 1026.67 1026.90 1026.97 1026.99 1027.15 1027.02 1026.96 1026.71 1026.53 1026.41
1020.78 1020.23 1020.20 1019.78 1019.97 1020.31 1020.09 1020.83 1021.11 1020.44 1019.73 1018.80 1018.24 1017.15 1018.00 1018.55 1019.15 1020.18 1020.92 1021.83 1022.52 1023.04 1023.41 1023.88 1024.41 1024.71 1025.18 1025.40 1025.69 1025.94 1026.21 1026.41 1026.53 1026.73 1026.85 1026.83 1026.93 1027.01 1027.21 1027.10 1026.93 1026.63 1026.47 1026.25
1021.14 1021.01 1020.81 1019.05 1019.68 1020.13 1019.77 1019.54 1019.53 1019.41 1019.20 1019.26 1019.06 1018.21 1018.55 1019.34 1019.79 1020.49 1021.16 1021.90 1022.59 1023.28 1023.91 1024.48 1024.93 1025.43 1025.83 1026.00 1026.12 1026.29 1026.51 1026.65 1026.70 1026.77 1026.79 1026.76 1026.85 1026.98 1026.99 1026.74 1026.45 1026.35 1026.15 1026.00
1021.30 1021.54 1021.44 1020.29 1020.57 1019.97 1019.36 1019.41 1019.91 1020.03 1019.91 1019.66 1019.58 1019.50 1019.71 1020.08 1020.71 1021.01 1021.60 1022.15 1022.86 1023.53 1024.33 1024.89 1025.26 1025.85 1026.39 1026.51 1026.59 1026.54 1026.79 1027.06 1026.99 1026.90 1026.90 1026.86 1027.02 1027.02 1026.83 1026.69 1026.61 1026.39 1026.16 1025.93
1021.63 1021.80 1021.60 1021.37 1021.05 1019.49 1019.27 1019.95 1020.37 1020.67 1020.44 1020.49 1020.65 1020.81 1021.07 1021.25 1021.54 1022.03 1022.12 1022.59 1023.17 1023.94 1024.62 1025.02 1025.50 1026.14 1026.63 1026.86 1027.34 1027.27 1027.05 1027.12 1027.10 1027.14 1027.09 1027.15 1027.16 1027.07 1026.83 1026.63 1026.50 1026.23 1026.01 1025.64
1022.51 1022.46 1022.63 1022.24 1021.96 1020.87 1020.46 1020.47 1020.44 1020.68 1020.90 1020.93 1021.49 1021.96 1022.31 1022.43 1022.87 1023.15 1023.24 1023.63 1023.90 1024.34 1024.72 1025.25 1025.93 1026.74 1027.20 1027.49 1027.28 1027.27 1027.31 1027.45 1027.45 1027.26 1027.14 1026.99 1026.86 1026.68 1026.50 1026.26 1026.08 1025.80 1025.45 1025.19
1024.18 1023.92 1023.77 1023.02 1022.75 1021.19 1020.60 1020.46 1020.45 1021.26 1021.86 1021.62 1022.03 1022.61 1023.01 1023.29 1023.69 1023.64 1024.07 1024.60 1025.01 1025.51 1025.91 1026.24 1026.84 1027.61 1027.98 1027.90 1027.97 1028.06 1027.97 1027.61 1027.21 1027.00 1026.91 1026.67 1026.54 1026.34 1026.06 1025.72 1025.56 1025.29 1025.04 1024.80
1025.09 1025.12 1024.56 1023.82 1023.21 1021.67 1020.55 1020.65 1021.03 1021.14 1021.37 1021.83 1022.38 1022.79 1023.25 1023.28 1023.75 1024.07 1024.70 1025.59 1026.10 1026.80 1027.56 1027.87 1028.23 1028.45 1028.73 1028.80 1028.77 1028.44 1028.04 1027.39 1027.07 1026.85 1026.68 1026.47 1026.29 1025.92 1025.42 1025.28 1025.00 1024.79 1024.56 1024.45
1025.24 1024.34 1024.25 1023.58 1021.62 1020.52 1020.37 1020.26 1020.39 1020.62 1021.06 1021.64 1022.10 1022.50 1022.82 1023.51 1023.93 1024.29 1025.30 1026.39 1026.97 1027.75 1028.60 1028.60 1028.98 1029.18 1028.94 1029.03 1028.97 1028.62 1027.83 1027.51 1027.14 1026.88 1026.55 1026.23 1025.96 1025.50 1025.15 1024.84 1024.55 1024.30 1024.13 1023.97
1024.65 1024.05 1023.87 1023.25 1021.27 1021.02 1020.65 1020.57 1020.55 1020.65 1020.94 1021.36 1021.81 1022.30 1022.84 1023.37 1023.98 1024.65 1025.68 1026.60 1027.28 1028.07 1028.78 1028.90 1029.41 1030.04 1029.87 1029.35 1029.07 1028.67 1028.08 1027.50 1027.19 1026.83 1026.45 1026.08 1025.71 1025.18 1024.71 1024.40 1024.15 1023.88 1023.64 1023.35
1024.69 1024.18 1023.22 1022.46 1021.64 1021.17 1020.66 1020.44 1020.38 1020.81 1021.06 1021.45 1021.88 1022.21 1022.77 1023.60 1024.11 1024.82 1025.69 1026.60 1027.43 1028.48 1029.20 1029.46 1029.99 1030.29 1029.73 1029.35 1028.92 1028.18 1027.87 1027.52 1027.17 1026.74 1026.30 1025.87 1025.39 1025.03 1024.55 1024.13 1023.77 1023.48 1023.03 1022.69
1023.98 1023.04 1022.81 1021.81 1021.05 1020.77 1020.38 1019.73 1020.08 1020.67 1021.03 1021.36 1021.99 1022.67 1023.33 1023.97 1024.44 1025.07 1026.07 1026.78 1027.72 1028.65 1029.08 1029.52 1029.44 1029.52 1029.20 1029.10 1028.73 1028.01 1027.54 1027.34 1027.01 1026.61 1026.04 1025.54 1025.06 1024.62 1024.21 1023.78 1023.20 1022.65 1022.09 1021.49
Thickness
5646 5640 5634 5636 5629 5628 5625 5623 5618 5617 5607 5611 5614 5597 5611 5616 5615 5607 5602 5602 5610 5604 5602 5592 5585 5577 5570 5565 5560 5557 5552 5547 5542 5537 5533 5530 5530 5528 5527 5526 5526 5525 5525 5526
5639 5637 5630 5625 5625 5624 5620 5616 5609 5612 5603 5602 5593 5595 5607 5617 5615 5603 5597 5595 5600 5599 5591 5585 5578 5570 5564 5558 5554 5548 5543 5538 5535 5532 5528 5526 5522 5519 5518 5517 5516 5515 5515 5515
5635 5628 5623 5624 5618 5618 5613 5609 5608 5599 5590 5585 5575 5610 5617 5617 5612 5600 5589 5587 5589 5592 5583 5575 5568 5563 5557 5550 5545 5540 5535 5531 5528 5523 5519 5515 5513 5510 5507 5505 5504 5503 5503 5503
5626 5618 5619 5616 5615 5606 5614 5597 5594 5589 5573 5572 5568 5574 5607 5610 5609 5597 5578 5575 5572 5578 5575 5567 5559 5554 5550 5543 5537 5533 5527 5522 5519 5516 5512 5509 5504 5500 5498 5496 5494 5492 5492 5491
5626 5612 5612 5610 5609 5598 5597 5584 5580 5562 5522 5517 5570 5540 5595 5598 5604 5599 5580 5570 5565 5563 5567 5559 5551 5547 5541 5535 5528 5523 5517 5511 5507 5505 5503 5498 5494 5491 5487 5484 5482 5481 5480 5479
5602 5595 5598 5600 5587 5586 5571 5571 5554 5534 5526 5523 5514 5539 5582 5586 5596 5591 5576 5561 5555 5552 5558 5549 5542 5533 5527 5522 5518 5513 5508 5502 5498 5495 5492 5489 5486 5482 5478 5474 5471 5469 5468 5467
5599 5595 5581 5580 5586 5575 5565 5558 5530 5530 5513 5552 5521 5519 5583 5589 5582 5579 5562 5549 5542 5538 5539 5533 5531 5524 5515 5511 5505 5501 5497 5490 5487 5484 5480 5477 5473 5469 5465 5461 5457 5455 5453 5451
5581 5591 5577 5563 5559 5556 5566 5535 5523 5527 5537 5556 5528 5528 5570 5560 5544 5543 5538 5534 5530 5525 5524 5524 5519 5513 5506 5500 5495 5491 5485 5480 5476 5471 5466 5463 5460 5456 5453 5450 5445 5442 5439 5437
5562 5591 5551 5549 5548 5544 5549 5537 5532 5486 5480 5461 5530 5541 5551 5536 5531 5527 5524 5518 5511 5507 5505 5507 5505 5502 5495 5488 5483 5478 5472 5465 5461 5456 5452 5448 5445 5442 5438 5435 5432 5430 5427 5424
5571 5559 5544 5537 5536 5529 5526 5518 5519 5475 5501 5488 5521 5499 5552 5523 5519 5512 5509 5498 5491 5488 5487 5487 5487 5485 5479 5474 5468 5462 5456 5451 5445 5441 5437 5434 5430 5427 5423 5419 5416 5413 5411 5409
5518 5531 5541 5533 5527 5516 5501 5485 5482 5484 5480 5482 5470 5516 5503 5509 5507 5497 5487 5479 5473 5468 5467 5466 5463 5462 5459 5454 5449 5444 5439 5434 5428 5423 5419 5415 5410 5407 5404 5401 5398 5396 5393 5391
5528 5504 5507 5543 5478 5465 5480 5487 5478 5497 5474 5484 5483 5501 5496 5478 5468 5461 5456 5461 5458 5455 5453 5449 5448 5444 5440 5431 5427 5421 5415 5412 5407 5402 5399 5394 5390 5386 5383 5380 5378 5377 5375 5372
5505 5500 5482 5518 5483 5472 5460 5442 5433 5457 5452 5482 5469 5511 5489 5476 5460 5445 5445 5447 5440 5439 5436 5432 5429 5425 5420 5413 5406 5399 5394 5390 5386 5383 5379 5374 5371 5368 5365 5362 5359 5357 5354 5351
5512 5485 5500 5521 5512 5472 5463 5440 5446 5448 5465 5454 5501 5518 5472 5471 5458 5448 5443 5437 5424 5415 5415 5412 5407 5400 5397 5391 5385 5379 5373 5369 5366 5362 5358 5353 5350 5347 5343 5340 5336 5334 5331 5329
5489 5475 5488 5496 5497 5473 5481 5455 5452 5457 5471 5484 5518 5479 5461 5458 5458 5444 5430 5417 5409 5402 5397 5390 5385 5382 5377 5371 5365 5360 5355 5350 5345 5341 5337 5333 5329 5326 5321 5319 5315 5313 5310 5307
5462 5467 5451 5445 5476 5462 5475 5470 5439 5457 5469 5465 5472 5481 5424 5428 5429 5418 5409 5398 5392 5384 5378 5370 5362 5361 5354 5349 5343 5339 5334 5330 5326 5321 5318 5315 5311 5306 5300 5296 5294 5292 5290 5289
5450 5451 5450 5477 5468 5457 5459 5456 5462 5444 5403 5422 5447 5446 5422 5413 5408 5399 5391 5383 5372 5363 5356 5348 5343 5337 5331 5326 5323 5318 5316 5311 5307 5304 5300 5297 5292 5287 5283 5281 5280 5278 5276 5274
5443 5430 5430 5442 5426 5414 5427 5384 5379 5387 5391 5392 5397 5396 5390 5385 5377 5370 5361 5356 5352 5343 5333 5324 5318 5312 5308 5306 5305 5304 5298 5291 5289 5286 5282 5279 5273 5270 5267 5265 5263 5262 5261 5260
5423 5420 5419 5415 5395 5432 5430 5396 5394 5373 5384 5367 5361 5366 5362 5358 5352 5349 5344 5335 5333 5322 5316 5315 5308 5301 5286 5286 5281 5279 5277 5273 5270 5266 5261 5258 5255 5253 5253 5252 5251 5250 5250 5249
5401 5392 5397 5368 5364 5367 5371 5377 5371 5366 5371 5363 5352 5345 5334 5333 5332 5323 5325 5320 5316 5312 5306 5300 5290 5279 5276 5270 5266 5264 5260 5252 5248 5247 5245 5244 5243 5243 5242 5242 5242 5242 5243 5242
5346 5330 5371 5372 5351 5357 5364 5364 5356 5352 5345 5333 5325 5311 5299 5321 5306 5300 5302 5294 5291 5288 5283 5274 5268 5260 5255 5251 5246 5243 5238 5236 5237 5236 5234 5234 5233 5234 5234 5235 5234 5234 5233 5231
5331 5315 5309 5321 5294 5324 5352 5348 5340 5329 5321 5312 5303 5291 5285 5294 5291 5277 5277 5262 5257 5263 5248 5241 5241 5236 5232 5228 5226 5224 5223 5226 5226 5225 5224 5225 5225 5226 5228 5227 5227 5225 5223 5220
5313 5324 5314 5325 5337 5339 5334 5330 5319 5314 5304 5297 5289 5287 5289 5283 5280 5277 5263 5249 5240 5236 5229 5222 5221 5214 5217 5214 5211 5210 5214 5214 5214 5214 5214 5215 5216 5218 5219 5219 5218 5216 5213 5209
5320 5309 5308 5310 5336 5315 5316 5316 5307 5303 5297 5293 5285 5278 5276 5271 5267 5260 5251 5241 5231 5224 5222 5211 5207 5201 5199 5199 5197 5199 5201 5204 5203 5203 5203 5204 5205 5207 5209 5209 5207 5206 5203 5201
5309 5299 5307 5304 5304 5300 5310 5302 5298 5291 5282 5278 5274 5272 5266 5256 5257 5246 5239 5229 5217 5210 5203 5194 5192 5187 5190 5188 5189 5191 5192 5192 5192 5193 5192 5193 5195 5195 5196 5196 5195 5194 5193 5192
5292 5300 5290 5298 5302 5294 5295 5299 5293 5282 5276 5274 5264 5258 5253 5245 5243 5235 5225 5218 5206 5198 5190 5187 5183 5179 5184 5178 5180 5183 5183 5182 5181 5182 5184 5184 5186 5185 5186 5186 5186 5185 5187 5188